Weather History for KLCK - May, 2014

Change the Weather History Date:

Sunday, May 11, 2014

  Actual Average Record
Temperature  
Mean Temperature 68 °F -  
Max Temperature 82 °F 72 °F 89 °F (2004)
Min Temperature 55 °F 51 °F 33 °F (1997)
Cooling Degree Days 4    
Growing Degree Days 18 (Base 50)    
Moisture  
Dew Point 57 °F    
Average Humidity 74    
Maximum Humidity 90    
Minimum Humidity 42    
Precipitation  
Precipitation 0.00 in - - ()
Sea Level Pressure  
Sea Level Pressure 30.07 in    
Wind  
Wind Speed 4 mph (South)    
Max Wind Speed 30 mph    
Max Gust Speed 41 mph    
Visibility 5 miles    
Events Fog , Rain , Thunderstorm    
Averages and records for this station are not official NWS values.
T = Trace of Precipitation, MM = Missing Value Source: NWS Daily Summary

Daily Weather History Graph

Daily Weather History Graph

Search for Another Location

Airport or City:

Trip Planner

Search our weather history database for the weather conditions in past years. The results will help you decide how hot, cold, wet, or windy it might be!

Date:

Astronomy

May. 11, 2014 Rise Set
Actual Time 6:20 AM EDT 8:35 PM EDT
Civil Twilight 5:50 AM EDT 9:06 PM EDT
Nautical Twilight 5:13 AM EDT 9:43 PM EDT
Astronomical Twilight 4:32 AM EDT 10:24 PM EDT
Moon 5:31 PM EDT (5/11) 4:24 AM EDT (5/11)
Length of Visible Light 15h 15m
Length of Day
14h 15m
Waxing Gibbous, 89% of the Moon is Illuminated
May 11
Waxing Gibbous
May 14
Full
May 21
Last Quarter
May 28
New
Jun 5
First Quarter

Hourly Weather History & Observations

Time (EDT) Temp. Heat Index Dew Point Humidity Pressure Visibility Wind Dir Wind Speed Gust Speed Precip Events Conditions
12:15 AM 57.2 °F - 53.4 °F 87% 30.03 in 5.0 mi South 4.6 mph - N/A   Mist
12:35 AM 56.7 °F - 53.1 °F 88% 30.04 in 7.0 mi South 4.6 mph - N/A   Unknown
12:55 AM 56.7 °F - 53.1 °F 88% 30.04 in 5.0 mi SSW 3.5 mph - N/A   Mist
1:15 AM 55.9 °F - 52.3 °F 88% 30.04 in 1.2 mi Calm Calm - N/A   Mist
1:35 AM 56.3 °F - 52.7 °F 88% 30.04 in 0.5 mi SSW 3.5 mph - N/A Fog Fog
1:55 AM 55.6 °F - 52.3 °F 89% 30.04 in 0.2 mi Calm Calm - N/A Fog Fog
2:15 AM 56.7 °F - 53.2 °F 88% 30.05 in 0.5 mi SSW 3.5 mph - N/A Fog Fog
2:35 AM 57.6 °F - 54.1 °F 88% 30.05 in 0.2 mi SSW 5.8 mph - N/A Fog Fog
2:55 AM 57.7 °F - 54.5 °F 89% 30.05 in 0.2 mi South 3.5 mph - N/A Fog Fog
3:15 AM 57.7 °F - 54.5 °F 89% 30.05 in 0.2 mi SSW 4.6 mph - N/A Fog Fog
3:35 AM 57.7 °F - 54.5 °F 89% 30.05 in 0.2 mi Calm Calm - N/A Fog Fog
3:55 AM 57.7 °F - 54.5 °F 89% 30.06 in 0.2 mi Calm Calm - N/A Fog Fog
4:15 AM 57.6 °F - 54.5 °F 90% 30.06 in 0.5 mi Calm Calm - N/A Fog Fog
4:35 AM 57.6 °F - 54.3 °F 89% 30.06 in 0.2 mi Calm Calm - N/A Fog Fog
4:55 AM 57.4 °F - 54.1 °F 89% 30.06 in 0.2 mi Calm Calm - N/A Fog Fog
5:15 AM 57.2 °F - 54.0 °F 89% 30.06 in 0.2 mi Calm Calm - N/A Fog Fog
5:35 AM 57.2 °F - 53.8 °F 88% 30.07 in 0.2 mi Calm Calm - N/A Fog Fog
5:55 AM 57.2 °F - 53.8 °F 88% 30.07 in 0.2 mi Calm Calm - N/A Fog Fog
6:15 AM 57.0 °F - 53.8 °F 89% 30.08 in 0.2 mi SE 4.6 mph - N/A Fog Fog
6:35 AM 56.5 °F - 53.2 °F 89% 30.09 in 0.2 mi SSE 3.5 mph - N/A Fog Fog
6:55 AM 56.7 °F - 53.6 °F 89% 30.10 in 0.2 mi South 3.5 mph - N/A Fog Fog
7:15 AM 56.8 °F - 53.6 °F 89% 30.10 in 0.2 mi ESE 3.5 mph - N/A Fog Fog
7:35 AM 56.7 °F - 53.4 °F 89% 30.11 in 0.2 mi Calm Calm - N/A Fog Fog
7:55 AM 56.7 °F - 53.4 °F 89% 30.11 in 0.2 mi SE 3.5 mph - N/A Fog Fog
8:15 AM 57.0 °F - 53.8 °F 89% 30.11 in 0.2 mi Calm Calm - N/A Fog Fog
8:35 AM 57.7 °F - 54.5 °F 89% 30.13 in 0.2 mi Calm Calm - N/A Fog Fog
8:55 AM 58.1 °F - 54.9 °F 89% 30.13 in 0.2 mi Calm Calm - N/A Fog Fog
9:15 AM 58.8 °F - 55.6 °F 89% 30.14 in 0.2 mi South 3.5 mph - N/A Fog Fog
9:35 AM 59.5 °F - 56.3 °F 89% 30.13 in 0.2 mi Calm Calm - N/A Fog Fog
9:55 AM 60.4 °F - 57.2 °F 89% 30.14 in 0.8 mi South 4.6 mph - N/A   Mist
10:15 AM 61.2 °F - 57.9 °F 89% 30.15 in 2.0 mi SSW 4.6 mph - N/A   Mist
10:35 AM 62.1 °F - 58.8 °F 89% 30.15 in 2.5 mi SW 4.6 mph - N/A   Mist
10:55 AM 63.1 °F - 59.7 °F 89% 30.15 in 3.0 mi SW 6.9 mph - N/A   Mist
11:15 AM 64.4 °F - 61.0 °F 89% 30.14 in 4.0 mi SSW 5.8 mph - N/A   Mist
11:35 AM 66.7 °F - 61.7 °F 84% 30.11 in 5.0 mi ESE 4.6 mph - N/A   Haze
11:55 AM 69.1 °F - 60.6 °F 74% 30.09 in 5.0 mi SE 8.1 mph - N/A   Haze
12:15 PM 70.2 °F - 59.4 °F 69% 30.10 in 7.0 mi SSE 6.9 mph - N/A   Unknown
12:35 PM 72.3 °F - 59.0 °F 63% 30.10 in 10.0 mi SSE 6.9 mph - N/A   Unknown
12:55 PM 74.7 °F - 58.8 °F 58% 30.10 in 10.0 mi SSE 8.1 mph - N/A   Unknown
1:15 PM 76.1 °F - 58.3 °F 54% 30.10 in 10.0 mi South 8.1 mph - N/A   Unknown
1:35 PM 77.2 °F - 57.9 °F 51% 30.09 in 10.0 mi South 8.1 mph 16.1 mph N/A   Unknown
1:55 PM 77.7 °F - 57.6 °F 50% 30.08 in 10.0 mi South 9.2 mph 16.1 mph N/A   Unknown
2:15 PM 77.9 °F - 58.5 °F 51% 30.08 in 10.0 mi SSE 8.1 mph 16.1 mph N/A   Unknown
2:35 PM 77.4 °F - 57.9 °F 51% 30.08 in 10.0 mi South 8.1 mph - N/A   Unknown
2:55 PM 77.7 °F - 58.1 °F 51% 30.07 in 10.0 mi SSE 8.1 mph 17.3 mph N/A   Unknown
3:15 PM 79.3 °F - 57.9 °F 48% 30.06 in 10.0 mi SSE 10.4 mph - N/A   Unknown
3:35 PM 80.4 °F 80.7 °F 57.6 °F 45% 30.06 in 10.0 mi South 12.7 mph 17.3 mph N/A   Unknown
3:55 PM 80.8 °F 80.9 °F 56.8 °F 44% 30.05 in 10.0 mi South 13.8 mph - N/A   Unknown
4:15 PM 81.3 °F 81.3 °F 57.2 °F 44% 30.04 in 10.0 mi South 15.0 mph - N/A   Unknown
4:35 PM 81.1 °F 81.1 °F 56.7 °F 43% 30.04 in 10.0 mi SSW 9.2 mph 18.4 mph N/A   Unknown
4:55 PM 81.3 °F 81.2 °F 56.8 °F 43% 30.03 in 10.0 mi South 12.7 mph - N/A   Unknown
5:15 PM 82.0 °F 81.7 °F 57.0 °F 42% 30.02 in 10.0 mi South 13.8 mph - N/A   Unknown
5:35 PM 81.9 °F 81.7 °F 57.6 °F 43% 30.03 in 10.0 mi South 10.4 mph - N/A   Unknown
5:55 PM 81.7 °F 81.6 °F 57.6 °F 44% 30.02 in 10.0 mi South 13.8 mph 17.3 mph N/A   Unknown
6:15 PM 81.7 °F 81.6 °F 57.9 °F 44% 30.01 in 10.0 mi South 12.7 mph - N/A   Unknown
6:35 PM 79.9 °F - 58.1 °F 47% 30.01 in 10.0 mi South 10.4 mph - N/A   Unknown
6:55 PM 78.4 °F - 58.5 °F 50% 30.01 in 10.0 mi South 6.9 mph - N/A   Unknown
7:15 PM 77.9 °F - 58.6 °F 51% 30.02 in 10.0 mi South 9.2 mph - N/A   Unknown
7:35 PM 77.0 °F - 59.0 °F 54% 30.01 in 10.0 mi South 4.6 mph - N/A   Unknown
7:55 PM 75.7 °F - 59.9 °F 58% 30.01 in 10.0 mi SSE 6.9 mph - N/A   Unknown
8:15 PM 75.0 °F - 60.6 °F 61% 30.02 in 10.0 mi SSE 3.5 mph - N/A Rain , Thunderstorm Light Thunderstorms and Rain
8:35 PM 75.0 °F - 60.8 °F 61% 30.02 in 10.0 mi Calm Calm - N/A Rain , Thunderstorm Light Thunderstorms and Rain
8:55 PM 72.0 °F - 61.3 °F 69% 30.07 in 4.0 mi West 29.9 mph 41.4 mph N/A Rain , Thunderstorm Heavy Thunderstorms and Rain
9:15 PM 67.1 °F - 61.0 °F 81% 30.06 in 3.0 mi NNW 6.9 mph - N/A Rain , Thunderstorm Thunderstorms and Rain
9:35 PM 66.2 °F - 61.2 °F 84% 30.06 in 10.0 mi Calm Calm - N/A Rain , Thunderstorm Light Thunderstorms and Rain
9:55 PM 66.6 °F - 61.5 °F 84% 30.06 in 10.0 mi South 3.5 mph - N/A Rain , Thunderstorm Light Thunderstorms and Rain
10:15 PM 66.2 °F - 61.5 °F 85% 30.07 in 10.0 mi South 3.5 mph - N/A Rain , Thunderstorm Rain
10:35 PM 66.6 °F - 62.1 °F 85% 30.07 in 5.0 mi East 3.5 mph - N/A Rain , Thunderstorm Rain
10:55 PM 66.7 °F - 62.4 °F 86% 30.07 in 10.0 mi Calm Calm - N/A Thunderstorm Unknown
11:15 PM 66.9 °F - 62.6 °F 86% 30.06 in 10.0 mi SE 5.8 mph - N/A Thunderstorm Thunderstorm
11:35 PM 66.6 °F - 62.6 °F 87% 30.07 in 7.0 mi ESE 4.6 mph - N/A   Unknown
11:55 PM 66.4 °F - 62.4 °F 87% 30.07 in 10.0 mi Calm Calm - N/A   Unknown